Location: Bremen
(53.0833°N, 8.8000°E)
Time: 13:40:29
(UTC+02:00)

ISS - Pass Details

Date: 30 April 2025
Orbit: 416 x 419 km, 51.6° (Epoch: 14 May)

Event Time Altitude Azimuth Distance (km) Brightness Sun altitude
Exits shadow 03:00:28 26° 125° (SE) 870 -2.3 -18.9°
Drops below altitude 10° 03:02:36 10° 91° (E) 1,497 -0.7 -18.8°
Sets 03:04:51 0° 80° (E) 2,364 0.6 -18.6°
